Syracuse, NY

9:54 PM EDT on July 24, 2016 (GMT -0400)
Syracuse Hancock International

Weather History for KSYR - May, 2013

Change the Weather History Date:

Thursday, May 16, 2013

  Actual Average Record
Temperature  
Mean Temperature 62 °F 58 °F  
Max Temperature 75 °F 69 °F 90 °F (1962)
Min Temperature 49 °F 46 °F 32 °F (1936)
Degree Days  
Heating Degree Days 3 8  
Month to date heating degree days 102 162  
Since 1 July heating degree days 5999 6497  
Cooling Degree Days 0 1  
Month to date cooling degree days 1 6  
Year to date cooling degree days 1 10  
Growing Degree Days 14 (Base 50)    
Moisture  
Dew Point 40 °F    
Average Humidity 46    
Maximum Humidity 64    
Minimum Humidity 27    
Precipitation  
Precipitation 0.00 in 0.10 in 1.45 in (1916)
Month to date precipitation 0.86 1.59  
Year to date precipitation 10.89 12.30  
Snow  
Snow 0.00 in 0.00 in T in (2016)
Month to date snowfall T 0.1  
Since 1 July snowfall 115.4 123.8  
Snow Depth 0.00 in    
Sea Level Pressure  
Sea Level Pressure 29.77 in    
Wind  
Wind Speed 13 mph (West)    
Max Wind Speed 28 mph    
Max Gust Speed 38 mph    
Visibility 10 miles    
Events      
T = Trace of Precipitation, MM = Missing Value Source: NWS Daily Summary

Daily Weather History Graph

Daily Weather History Graph

Search for Another Location

Airport or City:

Trip Planner

Search our weather history database for the weather conditions in past years. The results will help you decide how hot, cold, wet, or windy it might be!

Date:

Astronomy

May. 16, 2013 Rise Set
Actual Time 5:39 AM EDT 8:22 PM EDT
Civil Twilight 5:06 AM EDT 8:55 PM EDT
Nautical Twilight 4:25 AM EDT 9:37 PM EDT
Astronomical Twilight 3:38 AM EDT 10:24 PM EDT
Moon 11:13 AM EDT (5/16) 12:39 AM EDT (5/16)
Length of Visible Light 15h 48m
Length of Day
14h 42m
Waxing Crescent, 35% of the Moon is Illuminated
May 16
Waxing Crescent
May 18
First Quarter
May 25
Full
May 31
Last Quarter
Jun 8
New

Hourly Weather History & Observations

Time (EDT) Temp. Dew Point Humidity Pressure Visibility Wind Dir Wind Speed Gust Speed Precip Events Conditions
12:54 AM 57.0 °F 41.0 °F 55% 29.70 in 10.0 mi WSW 3.5 mph - N/A   Overcast
1:54 AM 55.9 °F 41.0 °F 57% 29.71 in 10.0 mi West 5.8 mph - N/A   Scattered Clouds
2:54 AM 54.0 °F 41.0 °F 62% 29.70 in 10.0 mi WSW 6.9 mph - N/A   Scattered Clouds
3:54 AM 53.1 °F 41.0 °F 64% 29.71 in 10.0 mi WSW 9.2 mph - N/A   Partly Cloudy
4:54 AM 54.0 °F 39.9 °F 59% 29.71 in 10.0 mi WSW 8.1 mph - N/A   Clear
5:54 AM 53.1 °F 39.9 °F 61% 29.72 in 10.0 mi WSW 6.9 mph - N/A   Scattered Clouds
6:54 AM 57.9 °F 39.9 °F 51% 29.74 in 10.0 mi WSW 11.5 mph - N/A   Scattered Clouds
7:54 AM 63.0 °F 41.0 °F 45% 29.75 in 10.0 mi WSW 11.5 mph - N/A   Partly Cloudy
8:54 AM 68.0 °F 42.1 °F 39% 29.75 in 10.0 mi West 13.8 mph 19.6 mph N/A   Partly Cloudy
9:54 AM 70.0 °F 42.1 °F 36% 29.75 in 10.0 mi WSW 12.7 mph 23.0 mph N/A   Partly Cloudy
10:54 AM 72.0 °F 41.0 °F 33% 29.75 in 10.0 mi West 15.0 mph 28.8 mph N/A   Scattered Clouds
11:54 AM 73.9 °F 42.1 °F 32% 29.75 in 10.0 mi West 19.6 mph 27.6 mph N/A   Scattered Clouds
12:54 PM 75.0 °F 42.1 °F 31% 29.74 in 10.0 mi WNW 12.7 mph 23.0 mph N/A   Scattered Clouds
1:54 PM 73.9 °F 42.1 °F 32% 29.74 in 10.0 mi NW 20.7 mph 27.6 mph N/A   Scattered Clouds
2:54 PM 73.9 °F 43.0 °F 33% 29.75 in 10.0 mi WNW 19.6 mph 26.5 mph N/A   Partly Cloudy
3:54 PM 73.9 °F 39.0 °F 28% 29.75 in 10.0 mi WNW 19.6 mph 27.6 mph N/A   Partly Cloudy
4:54 PM 73.0 °F 39.0 °F 29% 29.75 in 10.0 mi WNW 20.7 mph 28.8 mph N/A   Partly Cloudy
5:54 PM 72.0 °F 35.1 °F 26% 29.78 in 10.0 mi WNW 25.3 mph 35.7 mph N/A   Partly Cloudy
6:54 PM 66.9 °F 33.1 °F 28% 29.81 in 10.0 mi WNW 18.4 mph 26.5 mph N/A   Scattered Clouds
7:54 PM 64.0 °F 36.0 °F 35% 29.84 in 10.0 mi WNW 15.0 mph 23.0 mph N/A   Partly Cloudy
8:54 PM 60.1 °F 37.9 °F 44% 29.87 in 10.0 mi West 12.7 mph - N/A   Partly Cloudy
9:54 PM 57.0 °F 39.0 °F 51% 29.91 in 10.0 mi WNW 8.1 mph - N/A   Partly Cloudy
10:54 PM 54.0 °F 39.9 °F 59% 29.93 in 10.0 mi West 6.9 mph - N/A   Clear
11:54 PM 52.0 °F 39.9 °F 63% 29.96 in 10.0 mi NW 8.1 mph - N/A   Mostly Cloudy